Location: Barnston
(51.8500°N, 0.4000°E)
Time: 11:15:58
(UTC+00:00)

Cosmos 1048 Rocket - Pass Details

Date: 26 September 2023
Orbit: 742 x 789 km, 74.0° (Epoch: 28 November)

Event Time Altitude Azimuth Distance (km) Brightness Sun altitude
Rises 03:48:35 0° 335° (NNW) 3,281 7.3 -19.1°
Reaches altitude 10° 03:51:01 10° 337° (NNW) 2,343 6.5 -18.8°
Maximum altitude 03:56:20 75° 63° (ENE) 803 4.2 -18.0°
Drops below altitude 10° 04:01:34 10° 150° (SSE) 2,296 6.6 -17.3°
Sets 04:03:55 0° 152° (SSE) 3,210 7.3 -16.9°
